Weather History for KBVO - October, 2013

Change the Weather History Date:

Wednesday, October 9, 2013

  Actual Average Record
Temperature  
Mean Temperature 60 °F -  
Max Temperature 78 °F 75 °F 96 °F (1963)
Min Temperature 44 °F 48 °F 17 °F (2000)
Degree Days  
Heating Degree Days 4    
Growing Degree Days 10 (Base 50)    
Moisture  
Dew Point 50 °F    
Average Humidity 86    
Maximum Humidity 100    
Minimum Humidity 47    
Precipitation  
Precipitation 0.00 in - - ()
Sea Level Pressure  
Sea Level Pressure 30.04 in    
Wind  
Wind Speed 2 mph (SSE)    
Max Wind Speed 10 mph    
Max Gust Speed -    
Visibility 6 miles    
Events Fog    
Averages and records for this station are not official NWS values.
T = Trace of Precipitation, MM = Missing Value Source: NWS Daily Summary

Daily Weather History Graph

Daily Weather History Graph

Search for Another Location

Airport or City:

Trip Planner

Search our weather history database for the weather conditions in past years. The results will help you decide how hot, cold, wet, or windy it might be!

Date:

Astronomy

Oct. 09, 2013 Rise Set
Actual Time 7:26 AM CDT 6:55 PM CDT
Civil Twilight 7:00 AM CDT 7:21 PM CDT
Nautical Twilight 6:30 AM CDT 7:51 PM CDT
Astronomical Twilight 6:00 AM CDT 8:21 PM CDT
Moon 12:16 PM CDT (10/9) 10:37 PM CDT (10/9)
Length of Visible Light 12h 20m
Length of Day
11h 29m
Waxing Crescent, 25% of the Moon is Illuminated
Oct 9
Waxing Crescent
Oct 11
First Quarter
Oct 18
Full
Oct 26
Last Quarter
Nov 3
New

Hourly Weather History & Observations

Time (CDT) Temp. Dew Point Humidity Pressure Visibility Wind Dir Wind Speed Gust Speed Precip Events Conditions
12:47 AM 48.2 °F 46.4 °F 93% 30.04 in 1.8 mi Calm Calm - N/A   Clear
12:53 AM 48.0 °F 46.9 °F 96% 30.03 in 1.8 mi Calm Calm - N/A   Clear
1:10 AM 46.4 °F 46.4 °F 100% 30.04 in 3.0 mi Calm Calm - N/A   Clear
1:22 AM 46.4 °F 46.4 °F 100% 30.04 in 1.8 mi Calm Calm - N/A   Clear
1:53 AM 46.9 °F 46.0 °F 97% 30.03 in 1.0 mi Calm Calm - N/A   Clear
2:03 AM 48.2 °F 46.4 °F 93% 30.04 in 3.0 mi Calm Calm - N/A   Clear
2:34 AM 46.4 °F 46.4 °F 100% 30.05 in 2.0 mi Calm Calm - N/A   Clear
2:45 AM 46.4 °F 46.4 °F 100% 30.05 in 4.0 mi Calm Calm - N/A   Clear
2:53 AM 46.9 °F 46.9 °F 100% 30.03 in 10.0 mi Calm Calm - N/A   Clear
3:53 AM 46.0 °F 45.0 °F 96% 30.03 in 5.0 mi Calm Calm - N/A   Clear
4:51 AM 44.6 °F 44.6 °F 100% 30.05 in 1.8 mi Calm Calm - N/A   Clear
4:53 AM 44.1 °F 44.1 °F 100% 30.04 in 1.5 mi Calm Calm - N/A   Clear
5:53 AM 44.1 °F 44.1 °F 100% 30.04 in 1.0 mi Calm Calm - N/A   Clear
6:53 AM 44.1 °F 44.1 °F 100% 30.06 in 3.0 mi Calm Calm - N/A   Clear
7:03 AM 44.6 °F 44.6 °F 100% 30.07 in 1.8 mi Calm Calm - N/A   Clear
7:23 AM 44.6 °F 44.6 °F 100% 30.08 in 0.5 mi Calm Calm - N/A Fog Fog
7:49 AM 46.4 °F 46.4 °F 100% 30.08 in 1.0 mi Calm Calm - N/A   Clear
7:53 AM 46.0 °F 46.0 °F 100% 30.07 in 2.5 mi Calm Calm - N/A   Clear
8:00 AM 46.4 °F 46.4 °F 100% 30.08 in 7.0 mi Calm Calm - N/A   Clear
8:53 AM 55.0 °F 51.1 °F 86% 30.08 in 10.0 mi Variable 4.6 mph - N/A   Clear
9:53 AM 60.1 °F 52.0 °F 75% 30.09 in 10.0 mi SSE 8.1 mph - N/A   Clear
10:53 AM 66.0 °F 54.0 °F 65% 30.09 in 10.0 mi SSE 8.1 mph - N/A   Clear
11:53 AM 70.0 °F 53.1 °F 55% 30.08 in 10.0 mi SSE 10.4 mph - N/A   Clear
12:53 PM 73.0 °F 55.0 °F 53% 30.06 in 10.0 mi SSE 10.4 mph - N/A   Clear
1:53 PM 75.9 °F 55.9 °F 50% 30.04 in 10.0 mi SSE 10.4 mph - N/A   Clear
2:53 PM 77.0 °F 55.0 °F 47% 30.01 in 10.0 mi South 8.1 mph - N/A   Clear
3:53 PM 77.0 °F 55.9 °F 48% 30.00 in 10.0 mi South 6.9 mph - N/A   Clear
4:53 PM 75.9 °F 57.0 °F 52% 30.00 in 10.0 mi SSE 8.1 mph - N/A   Clear
5:53 PM 73.9 °F 55.9 °F 53% 30.00 in 10.0 mi SE 9.2 mph - N/A   Clear
6:53 PM 66.0 °F 57.0 °F 73% 30.01 in 10.0 mi Calm Calm - N/A   Clear
7:53 PM 57.9 °F 55.9 °F 93% 30.01 in 10.0 mi Calm Calm - N/A   Clear
8:53 PM 55.9 °F 55.0 °F 97% 30.01 in 10.0 mi SSW 3.5 mph - N/A   Clear
9:53 PM 55.0 °F 54.0 °F 96% 30.02 in 8.0 mi Calm Calm - N/A   Clear
10:53 PM 53.1 °F 53.1 °F 100% 30.03 in 6.0 mi Calm Calm - N/A   Clear
11:53 PM 52.0 °F 52.0 °F 100% 30.04 in 6.0 mi Calm Calm - N/A   Clear